Probability
0 0 0 0 0 0 0 0 0 0 0 0 0 0 1 1 1 2 2 1 0 0 1 0 1 2 5 8 8 6 7 9 11 13 13 11 11 14 15 13 10 6 4 5
0 0 0 0 0 0 0 0 0 0 0 0 0 0 0 0 0 1 1 0 0 0 1 0 0 1 3 5 4 3 3 4 6 9 10 9 9 10 10 9 7 5 3 3
0 0 0 0 0 0 0 0 0 0 0 0 0 0 0 0 0 0 0 0 0 0 0 0 0 0 1 2 1 0 0 0 1 3 4 4 5 6 5 3 3 2 1 2
0 0 0 0 0 0 0 0 0 0 0 0 0 0 0 0 0 0 0 0 0 0 0 0 0 0 1 1 1 0 0 0 0 0 1 1 2 3 2 1 1 0 0 1
0 0 0 0 0 0 0 0 0 0 0 0 0 0 0 0 0 0 0 0 0 0 0 0 0 0 0 0 0 0 0 0 0 0 0 0 0 1 1 0 0 0 0 0
0 0 0 0 0 0 0 0 0 0 0 0 0 1 2 1 0 0 0 0 0 0 0 0 0 0 0 0 0 0 0 0 0 0 0 0 0 0 0 0 0 0 0 0
0 0 0 0 0 0 0 0 0 0 0 0 0 2 4 2 0 0 0 0 0 0 0 0 0 0 0 0 0 0 0 0 0 0 0 0 0 0 0 0 0 0 0 0
0 0 0 0 0 0 0 0 0 0 0 0 0 2 3 2 0 0 0 0 0 0 0 0 0 0 0 0 0 0 0 0 0 0 0 0 0 0 0 0 0 0 0 0
0 0 0 0 0 0 0 0 0 0 0 0 0 0 0 0 0 0 0 0 0 0 0 0 0 0 0 0 0 0 0 0 0 0 0 0 0 0 0 0 0 0 1 1
0 0 0 0 0 0 0 0 0 0 0 0 0 0 0 0 0 0 0 0 0 0 0 0 0 0 0 0 0 0 0 0 0 0 0 0 0 0 0 0 0 0 0 0
0 0 0 0 0 0 0 0 0 0 0 0 0 0 0 0 0 0 0 0 0 0 0 0 0 0 0 0 0 0 0 0 0 0 0 0 0 0 0 0 0 0 0 0
0 0 0 0 0 0 0 0 0 0 0 0 0 0 0 0 0 0 0 0 0 0 0 0 0 0 0 0 0 0 0 0 0 0 0 0 0 0 0 0 0 0 0 0
0 0 0 0 0 0 0 0 0 0 0 0 0 0 0 0 0 0 0 0 0 0 0 0 0 0 0 0 0 0 0 0 0 0 0 0 0 0 0 0 0 0 0 0
0 0 0 0 0 0 0 0 0 0 0 0 0 0 0 0 0 0 0 0 0 0 0 0 0 0 0 0 0 0 0 0 0 0 0 0 0 0 0 0 0 0 0 0
0 0 0 0 0 0 0 0 0 0 0 0 0 0 0 0 0 0 0 0 0 0 0 0 0 0 0 0 0 0 0 0 0 0 0 0 0 0 0 0 0 0 0 0
0 0 0 0 0 0 0 0 0 0 0 0 0 0 0 0 0 0 0 0 0 0 0 0 0 0 0 0 0 0 0 0 0 0 0 0 0 0 0 0 0 0 0 0
0 0 0 0 0 0 0 0 0 0 0 0 0 0 0 0 0 0 0 0 0 0 0 0 0 0 0 0 0 0 0 0 0 0 0 0 0 0 0 0 0 0 0 0
0 0 0 0 0 0 0 0 0 0 0 0 0 0 0 0 0 0 0 0 0 0 0 0 0 0 0 0 0 0 0 0 0 0 0 0 0 0 0 0 0 0 0 0
0 0 0 0 0 0 0 0 0 0 0 0 0 0 0 0 0 0 0 0 0 0 0 0 0 0 0 0 0 0 0 0 0 0 0 0 0 0 0 0 0 0 0 0
0 0 0 0 0 0 0 0 0 0 0 0 0 0 0 0 0 0 0 0 0 0 0 0 0 0 0 0 0 0 0 0 0 0 0 0 0 0 0 0 0 0 0 0
0 0 0 0 0 0 0 0 0 0 0 0 0 0 0 0 0 0 0 0 0 0 0 0 0 0 0 0 0 0 0 0 0 0 0 0 0 0 0 0 0 0 0 0
0 0 0 0 0 0 0 0 0 0 0 0 0 0 0 0 0 0 0 0 0 0 0 0 0 0 0 0 0 0 0 0 0 0 0 0 0 0 0 0 0 0 0 0
0 0 0 0 0 0 0 0 0 0 0 0 0 0 0 0 0 0 0 0 0 0 0 0 0 0 0 0 0 0 0 0 0 0 0 0 0 0 0 0 0 0 0 0
0 0 0 0 0 0 0 0 0 0 0 0 0 0 0 0 0 0 0 0 0 0 0 0 0 0 0 0 0 0 0 0 0 0 0 0 0 0 0 0 0 0 0 0
0 0 0 0 0 0 0 0 0 0 0 0 0 0 0 0 0 0 0 0 0 0 0 0 0 0 0 0 0 0 0 0 0 0 0 0 0 0 0 0 0 0 0 0
0 0 0 0 0 0 0 0 0 0 0 0 0 0 0 0 0 0 0 0 0 0 0 0 0 0 0 0 0 0 0 0 0 0 0 0 0 0 0 0 0 0 0 0
Wind_Speed
5 7 2 2 4 4 2 1 3 7 5 5 8 9 7 6 6 6 6 6 7 7 6 5 5 5 5 5 5 5 5 6 5 5 6 6 7 6 5 5 7 8 7 6
7 3 3 2 2 4 4 3 5 7 5 3 8 8 7 6 6 5 6 6 6 6 6 5 4 4 5 5 5 5 5 6 6 6 5 5 6 6 5 5 6 8 8 6
4 4 3 3 4 5 4 3 1 5 7 6 8 9 8 7 6 6 5 5 5 5 5 4 4 3 4 4 5 5 6 6 7 7 6 6 5 5 5 6 5 7 8 8
3 1 3 5 3 5 3 1 2 7 9 6 9 4 9 7 6 5 5 5 4 4 3 2 1 2 3 4 5 5 6 7 7 7 7 9 7 7 7 6 6 7 7 7
3 3 5 5 3 5 3 1 4 7 7 4 6 6 9 7 6 5 5 4 3 2 1 1 3 4 5 6 7 7 7 8 8 8 8 8 9 8 7 7 7 7 6 6
2 1 3 4 2 1 3 4 6 8 8 7 2 6 7 5 3 4 4 4 3 2 2 3 5 6 7 8 9 9 9 10 10 10 10 10 10 10 10 10 9 7 6 5
2 3 3 2 3 5 6 7 6 6 6 1 3 4 7 5 2 0 1 3 4 4 5 6 8 9 10 10 11 11 11 11 11 12 11 12 12 12 12 12 10 9 8 6
3 2 6 5 5 3 3 7 6 7 6 2 4 0 7 4 1 1 3 4 5 6 7 8 9 10 11 12 12 12 12 13 13 13 12 12 13 12 11 11 12 12 10 9
6 3 4 4 4 5 3 3 6 8 6 7 1 6 7 4 1 3 4 6 7 7 8 10 11 12 12 12 13 13 13 14 14 14 14 13 13 13 14 14 13 12 10 10
6 4 2 1 3 6 5 3 4 6 7 7 3 2 4 3 3 4 5 6 7 9 10 12 12 12 12 12 13 14 14 14 15 15 14 13 14 14 14 14 15 14 14 13
5 5 1 2 5 6 2 1 4 5 5 8 8 4 7 4 4 6 7 7 9 11 12 13 12 12 13 14 15 15 15 16 15 15 15 15 15 15 15 14 15 14 14 14
4 6 1 4 5 3 5 5 5 6 5 5 8 3 8 3 4 6 8 9 10 12 13 13 13 13 14 15 16 16 16 16 16 16 16 16 15 16 16 16 15 15 15 14
2 4 4 7 7 4 2 3 4 5 4 5 8 5 5 2 6 7 9 11 12 13 13 13 13 14 15 15 16 16 16 17 16 16 16 16 17 17 16 16 16 16 15 15
5 3 6 6 6 3 0 1 3 5 5 7 7 11 10 9 9 9 10 13 14 14 13 14 14 15 15 15 16 16 16 16 16 16 16 17 17 17 17 17 16 16 16 16
4 1 2 2 2 3 3 2 2 3 5 8 10 12 12 11 10 10 12 14 15 14 14 14 15 15 16 16 16 16 16 16 16 16 17 17 17 17 16 17 16 16 16 17
2 2 3 3 2 4 6 5 5 4 5 7 10 11 8 7 8 11 13 14 14 14 15 16 17 17 17 16 16 16 16 16 16 16 17 17 17 17 17 17 17 17 16 16
3 4 6 5 1 8 8 7 7 5 6 8 10 12 11 11 12 13 14 13 13 14 16 17 17 16 16 16 15 16 15 16 16 16 17 17 17 17 17 18 18 17 17 16
4 5 5 7 5 8 4 3 2 6 8 7 8 11 11 11 12 13 10 9 12 15 16 16 16 17 16 16 15 15 15 16 16 16 16 17 17 18 17 17 17 16 15 14
5 6 7 7 9 9 4 5 4 5 9 4 7 10 10 11 13 7 4 8 13 15 15 15 16 16 16 15 15 15 15 16 16 16 16 17 17 18 18 17 16 15 13 12
6 7 9 8 10 10 2 8 3 5 6 1 5 9 10 11 11 8 10 13 14 14 14 14 15 15 15 14 15 15 16 16 16 16 16 17 17 17 17 17 15 13 11 11
7 7 10 11 11 7 7 9 5 7 7 4 6 7 9 9 10 12 14 13 13 15 15 15 14 14 13 14 14 15 15 15 16 16 16 16 16 16 16 14 12 12 10 10
7 7 6 7 8 3 10 7 5 5 3 3 5 6 7 9 11 12 13 13 14 15 15 15 14 14 13 13 13 15 15 15 15 16 16 16 15 14 12 13 11 10 9 8
6 6 6 5 5 4 7 5 2 2 4 4 5 5 7 9 11 12 12 12 13 14 14 14 14 14 13 13 13 14 15 15 15 16 16 15 14 13 12 11 11 9 7 5
4 2 6 7 7 4 6 8 7 6 6 4 4 5 7 9 11 12 11 12 13 13 14 13 14 14 14 14 14 14 14 14 14 15 15 14 13 12 11 9 8 7 6 5
9 4 8 10 10 6 8 9 8 7 6 5 4 5 6 8 10 11 11 12 12 13 13 13 13 13 15 14 14 14 13 13 14 15 14 13 12 11 10 8 6 7 6 5
8 9 10 9 5 6 3 4 5 7 7 6 6 6 6 7 9 10 10 11 12 13 13 13 14 14 14 14 14 14 13 13 13 12 12 10 10 9 8 7 5 1 2 2
Wind_Direction
212 236 229 20 340 343 311 276 101 98 107 88 100 101 91 87 81 82 79 78 80 78 78 70 67 63 61 52 39 23 11 2 346 347 340 340 338 334 335 340 341 329 314 299
213 201 30 333 255 233 222 212 130 120 135 140 124 112 107 95 84 75 84 90 95 97 95 84 74 67 53 46 34 21 11 2 350 354 335 330 329 329 342 349 347 347 340 322
272 46 3 266 216 229 229 268 157 143 154 167 162 146 139 125 121 117 110 109 107 102 98 92 76 58 46 34 17 6 356 346 350 340 333 336 328 327 342 346 349 353 350 345
272 7 295 277 260 278 254 333 200 169 194 182 224 200 149 147 148 142 136 132 123 122 116 99 65 26 10 360 349 344 338 337 334 326 336 338 334 334 338 333 341 339 343 347
310 333 300 281 328 308 11 56 199 203 236 223 205 258 136 165 175 158 150 150 152 149 140 345 341 338 334 332 331 329 329 326 322 317 310 306 314 322 323 326 326 324 330 338
331 340 318 332 350 10 138 169 187 215 235 236 166 278 137 149 157 152 164 184 206 233 271 301 314 316 318 321 322 322 324 320 315 307 302 296 299 303 308 310 311 310 313 316
136 115 74 313 237 175 225 249 245 232 232 204 126 263 85 89 103 167 235 232 244 262 282 297 307 314 318 320 323 323 322 319 316 309 301 295 293 292 288 291 298 299 298 295
317 71 43 11 337 310 295 292 303 306 311 326 177 164 94 85 98 266 275 276 273 280 292 302 308 313 314 319 322 322 322 318 316 312 308 302 294 288 290 295 297 295 291 289
345 8 76 46 26 316 284 328 336 293 286 286 165 120 128 144 192 260 277 282 286 294 301 305 311 314 316 321 323 322 319 315 313 311 307 297 294 294 295 294 284 281 282 281
341 310 57 122 194 67 13 350 294 305 317 307 297 202 126 122 358 330 308 306 308 309 310 313 316 317 319 320 319 317 315 314 312 309 309 307 306 299 294 290 289 287 284 279
337 300 136 140 37 20 10 20 336 316 331 316 317 37 79 37 345 323 323 320 319 318 318 319 318 319 318 317 317 318 317 314 312 311 311 307 303 301 297 291 286 283 279 276
350 309 334 96 86 31 41 15 342 322 333 308 304 48 105 26 320 313 313 318 321 320 317 317 319 320 318 318 319 318 316 313 311 311 308 305 304 301 297 294 293 289 283 276
350 292 239 172 171 150 69 41 356 323 299 309 311 6 117 289 299 303 308 316 319 320 320 319 319 319 318 318 317 314 312 311 312 311 308 306 304 302 300 297 294 290 285 279
298 352 340 6 21 4 257 79 344 316 322 324 331 328 332 331 320 316 318 320 320 320 319 319 319 317 318 316 314 313 311 312 312 312 309 306 304 303 301 299 295 290 285 280
283 18 20 14 347 289 280 256 285 336 341 323 330 322 332 344 335 324 318 319 318 319 320 320 319 318 317 316 315 313 313 313 314 311 307 306 306 304 301 298 295 291 286 280
313 312 276 241 229 272 262 243 244 276 306 313 312 326 1 333 312 313 319 321 319 320 321 321 319 319 318 317 315 315 313 314 313 309 309 309 307 304 302 300 295 292 287 282
226 263 286 295 262 272 258 226 232 268 309 310 316 332 335 317 319 321 320 318 319 321 321 320 320 318 317 316 316 314 314 314 311 310 308 309 308 306 304 301 298 294 290 285
250 263 277 294 280 276 50 99 232 282 297 297 302 318 326 320 319 307 303 315 320 319 319 319 318 318 317 318 317 316 314 312 310 310 311 311 310 308 307 302 298 295 290 284
237 249 276 286 288 292 153 175 215 281 299 306 314 321 322 324 308 310 43 328 319 318 318 317 317 317 318 317 319 317 313 311 311 312 315 315 312 309 307 304 304 300 294 285
198 230 259 272 289 296 54 130 138 275 274 99 314 313 319 319 312 347 353 330 324 322 320 318 317 316 317 321 321 316 313 312 314 317 316 312 309 308 308 308 307 304 298 288
216 224 249 270 277 285 111 138 183 272 356 16 315 313 313 318 315 321 324 324 323 320 319 319 318 316 320 322 318 312 311 312 315 315 311 308 309 309 308 309 308 307 302 294
272 267 254 269 274 299 132 167 240 325 2 311 308 309 311 310 311 316 320 321 320 321 321 323 320 319 320 321 317 313 312 314 314 313 311 309 311 311 312 312 310 309 303 294
254 295 301 282 302 68 185 220 248 299 284 296 300 309 312 309 314 319 320 321 321 322 322 323 321 319 319 321 318 312 312 314 314 313 311 311 312 312 313 315 316 313 307 298
224 200 260 264 268 239 223 231 236 243 260 276 282 300 305 308 315 319 321 321 322 323 323 324 322 319 319 320 317 313 313 316 314 312 312 312 313 314 317 317 318 321 321 318
294 239 254 259 270 260 229 227 232 228 233 243 256 282 301 308 312 318 318 319 322 321 323 323 320 317 317 319 318 317 318 319 315 312 313 315 315 314 313 317 326 328 337 349
260 246 252 273 279 246 229 179 205 216 223 235 257 277 291 301 309 315 316 319 319 321 322 321 321 319 319 319 318 320 323 320 315 312 314 315 314 314 313 318 323 252 288 345